STARLINK-1099 (44918 NORAD) Tracking and Keplerian Element Data

This shows tracking and keplerian element data for the satellite.

Feedback or suggestion? Click here.




ElementValue
Catalog44918
NameSTARLINK-1099
Epoch Orbit1402
Epoch Day93.91667824
Epoch Year2020
RAAN353.6287
Inclination53.0025
Eccentricity0.0002348
Argument of Perigee75.384
Mean Anonmoly150.5214
Mean Motion15.05582219
Decay Rate-0.00027837
L11 44918U 20001E 20093.91667824 -.00027837 00000-0 -18986-2 0 9999
L22 44918 53.0025 353.6287 0002348 75.3840 150.5214 15.05582219 14024

Live tracking and technical data element details for STARLINK-1099 (NORAD 44918). STARLINK-1099 can be tracked NOW for your location showing map with azimuth and elevation plus other details from your city location.

Track the satellite on the map from your city or location and see movement details for azimuth, elevation, latitude, longitude, range, height, and movement on the map or in text.







IsCatalogInMostPopularTable: catalog: 44918, numindb: 21
Update: records affected: 1



GetName: 44918 STARLINK-1099

Hit Count: updated at: Sun, 05 Apr 2020 20:49:16 GMT